DELTA 1 DEB, 10759

Orbit data source: Space-Track

DELTA 1 DEB, 10759 is space debris in SSO originally from a launch on Thu, 29 Jul 1976 UTC launched from the Air Force Western Test Range (AFWTR). Debris objects in space refer to the collection of defunct objects orbiting the Earth. Examples of debris include non-operational satellites, rocket bodies, and fragments generated from explosions, collisions, or faulty payload assembly.

Loading next visibility...
Identifier
10759, 1976-077BG
Orbit
SSO
Country
Flag of USUS
Related business
Manufacturer
Unknown
Mission
Spacecraft
Bus & Motor
Unknown
Mass
Unknown
Launch date (UTC)
1976-07-29 (50 years ago)
Launch vehicle
Unknown
Launch site
Air Force Western Test Range (AFWTR)
Object type
Payload
Rocket body
Debris
Shape & HBR
Unknown shape, 0.2 m
Radar Cross Section
Medium (>0.1 m² and <1 m²)

Expand to show TLE details & history
Last TLE update: 19 hours ago

TLE from 19 hours ago
0 DELTA 1 DEB
1 10759U 76077BG  26255.23646281 -.00000273  00000-0 -16297-2 0  9992
2 10759 102.4776 159.2665 0065962 223.5436 289.2794 12.42099035262408
Epoch: 2026-09-12T05:40Z
TLE epoch observation values (Epoch: 2026-09-12T05:40:30.386Z)
Latitude
27.21702°
Longitude
-90.60577°
Altitude
1,483.864 km
Speed
7.132 km/s
True Right ascension
23h 03m 04s
True Declination
27° 05' 25"
Sunlit
Object was in full shadow at epoch
Visualization orbit readout
Latitude
Unknown
Longitude
Unknown
Altitude
Unknown
Speed
Unknown
Apparent Right ascension
Unknown
Apparent Declination
Unknown
Sunlit
N/A
Visualization observer readout
Local Sidereal Time
17:33:24
Azimuth
Unknown
Elevation
Unknown
Doppler factor
Unknown
Orbital elements
Apogee altitude
1,547.253 km
Perigee altitude
1,443.384 km
Semi-major axis
7,873.455 km
Eccentricity
0.0066
Inclination
102.4776°
RAAN
159.2665°
Arg. of periapsis
223.5436°
True anomaly
288.56399°
Mean anomaly
289.2794°
Eccentric anomaly
288.92189°
Mean motion
3.10667 °/min
Orbital period
115.88 mins
BSTAR
-0.0016297
Loading maneuver chart data...
Computing Atmospheric mass density...
Loading historical data...
Loading historical data...
Loading historical data...
Loading historical data...
Loading historical data...
Loading historical data...
Loading historical data...

Documentation

Showing up to 5 results
|